This is the latest recevied weather packets stored in our database for station/object KD9ZDW. If no packets are shown the sender has not sent any weather packets the latest 1 day(s).
| Time | Temp. | Humidity | Pressure | Rain* | Wind** | Luminosity | Snow |
|---|---|---|---|---|---|---|---|
| 1777990659 | 12.78° C | 75% | 1010 hPa | 0 mm | 1.79 m/s, 311° | 21 W/m² | - |
| 1777990356 | 13.89° C | 82% | 1010.1 hPa | 0 mm | 2.24 m/s, 338° | 20 W/m² | - |
| 1777990052 | 13.89° C | 83% | 1009.8 hPa | 0 mm | 2.24 m/s, 301° | 32 W/m² | - |
| 1777989749 | 13.89° C | 83% | 1009.8 hPa | 0 mm | 1.34 m/s, 319° | 27 W/m² | - |
| 1777989446 | 14.44° C | 83% | 1009.9 hPa | 0 mm | 1.79 m/s, 287° | 23 W/m² | - |
| 1777989142 | 14.44° C | 82% | 1009.6 hPa | 0 mm | 6.71 m/s, 262° | 24 W/m² | - |
| 1777988838 | 14.44° C | 82% | 1009.5 hPa | 0 mm | 1.79 m/s, 286° | 53 W/m² | - |
| 1777988536 | 15° C | 82% | 1009.2 hPa | 0 mm | 1.34 m/s, 303° | 71 W/m² | - |
| 1777988232 | 14.44° C | 82% | 1009.1 hPa | 0 mm | 1.34 m/s, 255° | 127 W/m² | - |
| 1777987929 | 14.44° C | 82% | 1009 hPa | 0 mm | 2.68 m/s, 250° | 90 W/m² | - |
| 1777987624 | 14.44° C | 83% | 1008.6 hPa | 0 mm | 1.34 m/s, 270° | 117 W/m² | - |
| 1777987322 | 14.44° C | 83% | 1008.4 hPa | 0 mm | 2.24 m/s, 238° | 101 W/m² | - |
| 1777987019 | 14.44° C | 84% | 1008.4 hPa | 0 mm | 0 m/s | 112 W/m² | - |
| 1777986717 | 14.44° C | 84% | 1008.3 hPa | 0 mm | 1.79 m/s, 155° | 73 W/m² | - |
| 1777986414 | 14.44° C | 84% | 1008.2 hPa | 0 mm | 1.79 m/s, 308° | 119 W/m² | - |
| 1777986113 | 13.89° C | 85% | 1008.2 hPa | 0 mm | 1.34 m/s, 257° | 95 W/m² | - |
| 1777985809 | 13.89° C | 86% | 1008.1 hPa | 0 mm | 0.89 m/s, 258° | 85 W/m² | - |
| 1777985506 | 14.44° C | 85% | 1007.8 hPa | 0 mm | 2.68 m/s, 285° | 72 W/m² | - |
| 1777985203 | 13.89° C | 85% | 1007.6 hPa | 0 mm | 1.34 m/s, 274° | 89 W/m² | - |
| 1777984899 | 14.44° C | 86% | 1007.5 hPa | 0 mm | 0.89 m/s, 276° | 80 W/m² | - |
| 1777984595 | 13.89° C | 85% | 1007.5 hPa | 0 mm | 1.34 m/s, 271° | 146 W/m² | - |
| 1777984292 | 13.89° C | 86% | 1007.8 hPa | 0 mm | 0.89 m/s, 208° | 114 W/m² | - |
| 1777983989 | 13.89° C | 86% | 1007.9 hPa | 0 mm | 1.79 m/s, 244° | 131 W/m² | - |
| 1777983686 | 13.89° C | 86% | 1008 hPa | 0 mm | 1.34 m/s, 267° | 79 W/m² | - |
| 1777983382 | 13.89° C | 86% | 1008.1 hPa | 0 mm | 2.68 m/s, 270° | 73 W/m² | - |
* Rain latest hour (hover to see other rain measurements)
** Current wind speed in m/s (hover to see current wind gust speed)